Total_Precipitation_Accumulation
0.06 0.07 0.08 0.09 0.05 0.02 0.00 0.00 0.00 0.00 0.00 0.00 0.00 0.00 0.00 0.00 0.00 0.01 0.00 0.00 0.01 0.03 0.07 0.17 0.24 0.27 0.31 0.33 0.31 0.29 0.29 0.29 0.32 0.34 0.31 0.33 0.37 0.40 0.45 0.46 0.49 0.53 0.58 0.65 0.62 0.60 0.63 0.64 0.66
0.06 0.09 0.11 0.10 0.04 0.01 0.00 0.00 0.00 0.00 0.00 0.00 0.00 0.00 0.00 0.00 0.00 0.00 0.01 0.00 0.01 0.01 0.04 0.10 0.21 0.26 0.29 0.31 0.32 0.31 0.30 0.28 0.29 0.34 0.34 0.36 0.40 0.42 0.44 0.49 0.53 0.55 0.61 0.62 0.67 0.67 0.67 0.67 0.64
0.10 0.13 0.13 0.09 0.03 0.00 0.00 0.00 0.00 0.00 0.00 0.00 0.00 0.00 0.00 0.00 0.00 0.00 0.00 0.00 0.01 0.01 0.03 0.09 0.20 0.26 0.31 0.35 0.35 0.33 0.32 0.31 0.32 0.37 0.39 0.42 0.45 0.47 0.46 0.51 0.52 0.55 0.58 0.56 0.61 0.65 0.62 0.60 0.55
0.14 0.18 0.16 0.08 0.01 0.00 0.00 0.00 0.00 0.00 0.00 0.00 0.00 0.00 0.00 0.00 0.00 0.00 0.00 0.00 0.01 0.02 0.04 0.09 0.20 0.28 0.33 0.38 0.41 0.38 0.34 0.35 0.38 0.42 0.44 0.45 0.46 0.48 0.48 0.49 0.45 0.46 0.51 0.53 0.57 0.59 0.57 0.58 0.56
0.18 0.18 0.14 0.06 0.01 0.00 0.00 0.00 0.00 0.00 0.00 0.00 0.00 0.00 0.00 0.00 0.00 0.00 0.00 0.01 0.01 0.03 0.05 0.10 0.21 0.30 0.34 0.39 0.45 0.43 0.40 0.39 0.41 0.45 0.48 0.48 0.49 0.49 0.48 0.49 0.45 0.41 0.40 0.45 0.52 0.56 0.58 0.62 0.57
0.22 0.18 0.10 0.03 0.01 0.00 0.00 0.00 0.00 0.00 0.00 0.00 0.00 0.00 0.00 0.00 0.00 0.00 0.01 0.01 0.01 0.03 0.06 0.11 0.25 0.31 0.35 0.41 0.46 0.45 0.45 0.46 0.46 0.49 0.52 0.53 0.53 0.53 0.49 0.46 0.45 0.44 0.39 0.39 0.44 0.51 0.60 0.65 0.58
0.22 0.16 0.07 0.02 0.01 0.00 0.00 0.00 0.00 0.00 0.00 0.00 0.00 0.00 0.00 0.01 0.01 0.01 0.01 0.02 0.03 0.05 0.07 0.12 0.23 0.31 0.39 0.47 0.51 0.50 0.49 0.50 0.50 0.51 0.54 0.56 0.55 0.55 0.53 0.48 0.44 0.43 0.42 0.42 0.40 0.44 0.54 0.60 0.58
0.21 0.21 0.09 0.03 0.01 0.01 0.00 0.00 0.00 0.00 0.00 0.00 0.00 0.00 0.00 0.01 0.01 0.01 0.02 0.04 0.07 0.09 0.10 0.15 0.22 0.29 0.36 0.45 0.50 0.53 0.54 0.56 0.53 0.52 0.48 0.45 0.49 0.55 0.52 0.44 0.42 0.42 0.42 0.42 0.39 0.39 0.43 0.47 0.50
0.29 0.31 0.13 0.04 0.02 0.01 0.01 0.01 0.00 0.00 0.01 0.00 0.00 0.00 0.00 0.01 0.02 0.03 0.06 0.09 0.11 0.12 0.14 0.18 0.26 0.31 0.39 0.44 0.45 0.53 0.58 0.60 0.57 0.54 0.44 0.43 0.46 0.45 0.43 0.36 0.35 0.40 0.43 0.42 0.43 0.43 0.41 0.38 0.33
0.40 0.31 0.12 0.04 0.03 0.03 0.02 0.02 0.02 0.02 0.01 0.01 0.00 0.00 0.00 0.02 0.03 0.05 0.07 0.10 0.11 0.13 0.16 0.20 0.28 0.37 0.44 0.44 0.46 0.55 0.57 0.55 0.52 0.48 0.43 0.44 0.46 0.44 0.39 0.36 0.34 0.37 0.40 0.43 0.45 0.45 0.43 0.38 0.31
0.37 0.27 0.12 0.05 0.05 0.07 0.06 0.04 0.03 0.04 0.03 0.02 0.01 0.01 0.02 0.05 0.07 0.08 0.08 0.11 0.12 0.12 0.16 0.19 0.28 0.38 0.46 0.49 0.48 0.50 0.53 0.55 0.53 0.50 0.46 0.47 0.51 0.50 0.43 0.38 0.34 0.36 0.36 0.40 0.41 0.42 0.40 0.40 0.42
0.32 0.22 0.15 0.09 0.07 0.10 0.10 0.07 0.05 0.05 0.03 0.01 0.02 0.02 0.03 0.05 0.06 0.08 0.10 0.14 0.17 0.17 0.19 0.23 0.28 0.38 0.47 0.50 0.49 0.49 0.47 0.45 0.47 0.48 0.48 0.48 0.48 0.43 0.37 0.34 0.30 0.29 0.30 0.33 0.36 0.37 0.37 0.38 0.41
0.29 0.19 0.14 0.13 0.11 0.10 0.12 0.11 0.08 0.05 0.02 0.02 0.03 0.04 0.06 0.07 0.08 0.10 0.13 0.18 0.21 0.22 0.23 0.26 0.30 0.37 0.46 0.54 0.53 0.52 0.48 0.42 0.41 0.45 0.47 0.42 0.40 0.39 0.38 0.35 0.33 0.31 0.29 0.29 0.30 0.30 0.32 0.34 0.38
0.28 0.20 0.16 0.15 0.16 0.14 0.14 0.12 0.09 0.05 0.03 0.04 0.06 0.07 0.08 0.10 0.11 0.13 0.15 0.17 0.20 0.22 0.26 0.31 0.35 0.40 0.47 0.51 0.51 0.50 0.53 0.53 0.50 0.44 0.42 0.43 0.41 0.39 0.39 0.39 0.38 0.34 0.30 0.30 0.31 0.30 0.33 0.34 0.35
0.28 0.28 0.23 0.19 0.19 0.20 0.22 0.18 0.08 0.04 0.04 0.07 0.08 0.09 0.09 0.11 0.13 0.14 0.15 0.17 0.18 0.24 0.30 0.35 0.41 0.44 0.48 0.52 0.55 0.55 0.54 0.55 0.54 0.47 0.42 0.41 0.42 0.43 0.39 0.40 0.40 0.40 0.41 0.40 0.38 0.37 0.39 0.37 0.35
0.43 0.47 0.37 0.20 0.17 0.22 0.33 0.27 0.06 0.03 0.06 0.08 0.08 0.08 0.08 0.09 0.11 0.14 0.17 0.20 0.23 0.28 0.35 0.40 0.46 0.48 0.51 0.52 0.58 0.62 0.62 0.61 0.55 0.50 0.47 0.42 0.41 0.43 0.47 0.45 0.43 0.43 0.47 0.51 0.50 0.44 0.43 0.40 0.37
0.64 0.54 0.30 0.16 0.14 0.22 0.32 0.25 0.09 0.06 0.08 0.09 0.08 0.08 0.08 0.08 0.09 0.12 0.16 0.19 0.25 0.28 0.35 0.41 0.45 0.49 0.52 0.55 0.63 0.66 0.67 0.68 0.65 0.58 0.50 0.45 0.45 0.42 0.44 0.47 0.46 0.49 0.52 0.51 0.53 0.52 0.55 0.51 0.44
0.47 0.32 0.21 0.16 0.15 0.20 0.23 0.16 0.10 0.10 0.11 0.10 0.09 0.08 0.09 0.08 0.08 0.10 0.14 0.19 0.25 0.30 0.36 0.44 0.48 0.52 0.57 0.65 0.73 0.78 0.75 0.73 0.72 0.66 0.56 0.47 0.45 0.44 0.44 0.45 0.48 0.52 0.57 0.57 0.56 0.54 0.54 0.55 0.57
0.31 0.28 0.24 0.16 0.14 0.20 0.19 0.15 0.12 0.13 0.13 0.11 0.10 0.09 0.11 0.10 0.09 0.10 0.14 0.17 0.22 0.30 0.38 0.46 0.48 0.55 0.62 0.67 0.70 0.73 0.72 0.72 0.75 0.71 0.65 0.58 0.52 0.48 0.48 0.47 0.48 0.51 0.51 0.49 0.49 0.53 0.53 0.49 0.52
0.42 0.42 0.30 0.19 0.16 0.21 0.21 0.17 0.14 0.15 0.15 0.12 0.10 0.09 0.11 0.12 0.12 0.14 0.15 0.18 0.20 0.25 0.36 0.48 0.48 0.53 0.58 0.57 0.57 0.62 0.69 0.72 0.76 0.78 0.75 0.66 0.58 0.54 0.52 0.52 0.52 0.51 0.50 0.46 0.43 0.45 0.48 0.46 0.46
0.49 0.38 0.28 0.25 0.26 0.28 0.28 0.23 0.13 0.12 0.11 0.10 0.08 0.08 0.09 0.12 0.14 0.16 0.18 0.22 0.21 0.24 0.30 0.44 0.47 0.50 0.58 0.61 0.67 0.70 0.83 0.88 0.84 0.82 0.82 0.71 0.61 0.54 0.53 0.55 0.58 0.56 0.53 0.49 0.46 0.46 0.45 0.46 0.43
0.50 0.26 0.25 0.32 0.49 0.56 0.42 0.43 0.16 0.11 0.11 0.10 0.09 0.09 0.09 0.11 0.13 0.16 0.18 0.24 0.27 0.24 0.29 0.37 0.44 0.46 0.56 0.63 0.66 0.66 0.68 0.74 0.71 0.68 0.71 0.68 0.64 0.59 0.54 0.56 0.59 0.61 0.57 0.51 0.50 0.50 0.49 0.51 0.52
0.36 0.25 0.34 0.46 0.62 0.69 0.47 0.48 0.20 0.10 0.15 0.14 0.12 0.10 0.09 0.09 0.11 0.14 0.17 0.23 0.29 0.29 0.33 0.38 0.39 0.45 0.53 0.61 0.63 0.65 0.62 0.63 0.69 0.73 0.73 0.77 0.68 0.64 0.60 0.61 0.61 0.62 0.57 0.55 0.53 0.52 0.53 0.54 0.56
0.39 0.49 0.62 0.74 1.06 1.15 0.39 0.35 0.22 0.12 0.15 0.15 0.12 0.11 0.11 0.10 0.11 0.13 0.17 0.23 0.31 0.38 0.39 0.44 0.44 0.45 0.51 0.59 0.63 0.66 0.65 0.64 0.75 0.76 0.80 0.84 0.83 0.74 0.69 0.68 0.63 0.60 0.55 0.53 0.52 0.53 0.54 0.53 0.53
0.73 1.12 1.60 1.62 1.61 0.90 0.17 0.19 0.18 0.10 0.07 0.09 0.11 0.13 0.14 0.12 0.13 0.14 0.18 0.25 0.36 0.43 0.44 0.48 0.51 0.47 0.49 0.57 0.60 0.61 0.64 0.67 0.69 0.76 0.77 0.80 0.83 0.76 0.68 0.66 0.63 0.60 0.56 0.53 0.53 0.55 0.56 0.57 0.59
0.74 1.00 1.34 1.16 0.69 0.28 0.13 0.16 0.13 0.07 0.05 0.04 0.05 0.07 0.11 0.13 0.15 0.17 0.18 0.25 0.35 0.44 0.47 0.49 0.51 0.51 0.53 0.55 0.56 0.59 0.65 0.68 0.69 0.72 0.76 0.78 0.78 0.76 0.69 0.68 0.66 0.61 0.57 0.58 0.58 0.58 0.59 0.61 0.62
0.66 0.73 0.68 0.92 0.64 0.35 0.22 0.15 0.11 0.07 0.06 0.04 0.03 0.05 0.08 0.10 0.12 0.18 0.18 0.23 0.33 0.40 0.42 0.42 0.49 0.52 0.55 0.58 0.57 0.59 0.63 0.69 0.68 0.68 0.70 0.74 0.78 0.78 0.79 0.77 0.75 0.74 0.71 0.72 0.71 0.69 0.65 0.65 0.65
0.56 0.67 0.84 1.30 1.09 0.54 0.25 0.16 0.16 0.12 0.09 0.06 0.06 0.07 0.10 0.12 0.13 0.19 0.19 0.20 0.29 0.37 0.36 0.35 0.43 0.49 0.48 0.52 0.59 0.59 0.61 0.66 0.70 0.73 0.73 0.71 0.74 0.78 0.81 0.82 0.78 0.75 0.77 0.82 0.87 0.83 0.75 0.75 0.73
0.67 0.87 1.10 1.20 0.89 0.61 0.37 0.27 0.21 0.18 0.16 0.14 0.11 0.11 0.14 0.15 0.16 0.21 0.22 0.23 0.26 0.33 0.34 0.33 0.36 0.47 0.50 0.49 0.54 0.60 0.63 0.69 0.76 0.79 0.77 0.74 0.75 0.81 0.83 0.84 0.82 0.79 0.79 0.81 0.85 0.84 0.83 0.85 0.83
0.65 0.77 0.91 1.21 0.93 0.52 0.42 0.30 0.17 0.16 0.15 0.15 0.16 0.14 0.12 0.14 0.15 0.17 0.21 0.26 0.31 0.36 0.39 0.36 0.35 0.43 0.53 0.54 0.50 0.53 0.61 0.68 0.77 0.81 0.79 0.81 0.76 0.76 0.83 0.86 0.86 0.81 0.80 0.83 0.88 0.86 0.85 0.89 0.91